[[{"header":{"parameterUnit":"m.s-1","parameterCategory":1,"la1":30.2991,"la2":30.254,"lo1":-89.0895,"lo2":-89.0444,"dy":0.0017,"dx":0.0017,"nx":28,"ny":28,"refTime":"2023-11-04T21:00:00:Z","depth":0,"parameterNumber":2,"parameterNumberName":"U-component_of_WINDS"},"data":[0,0,0,0,0,0,0,0,0,0,0,0,0,0,0,0,0,0,0,0,0,0,0,0,0,0,0,0,0,0,0,0,0,0,0,0,0,0,0,0,0,0,0,0,0,0,0,0,0,0,0,0,0,0,0,0,0,0,0.2941,0.2941,0,0.296,0.2961,0.2961,0.2953,0.2952,0.2952,0.2952,0.2973,0.2974,0.2975,0,0,0,0,0,0,0,0,0,0,0,0,0,0.29,0.2901,0.2941,0.2941,0.2942,0.296,0.2961,0.2961,0.2953,0.2952,0.2952,0.2951,0.2973,0.2974,0.2975,0,0,0,0,0,0,0,0,0,0,0,0,0,0.2918,0.2901,0.2941,0.294,0.294,0.296,0.2961,0.2961,0.2953,0.2952,0.2952,0.2951,0.2973,0.2974,0.2976,0.2999,0,0,0.298,0.2981,0,0,0,0,0,0,0,0,0.2917,0.292,0.294,0.294,0.294,0.2953,0.2954,0.2974,0.2953,0.2948,0.2952,0.2951,0.2967,0.2969,0.2974,0.3,0.3001,0.298,0.2981,0.2982,0.2982,0,0,0,0,0,0,0,0.2916,0.2919,0.2949,0.294,0.294,0.2939,0.2941,0.2958,0.2962,0.2949,0.2948,0.295,0.2967,0.2973,0.2975,0.3001,0.298,0.2982,0.2982,0.2983,0.3045,0.3046,0,0,0,0,0,0,0.2914,0.2918,0.2948,0.2949,0.2927,0.294,0.2942,0.295,0.2961,0.2962,0.2951,0.295,0.2971,0.2973,0.2976,0.3003,0.2982,0.2983,0.2984,0.3045,0.3045,0.3046,0,0,0,0,0,0,0.2914,0.2917,0.2947,0.2934,0.2937,0.2942,0.295,0.2951,0.2956,0.2963,0.2964,0.2956,0.297,0.2974,0.2993,0.3004,0.2984,0.2985,0.3044,0.3045,0.3046,0.3058,0,0,0,0,0,0,0.2912,0.2917,0.2925,0.2934,0.2938,0.2964,0.2951,0.2952,0.2959,0.2958,0.2968,0.2969,0.297,0.299,0.2994,0.3005,0.2986,0.3043,0.3044,0.3045,0.3057,0.306,0.3062,0,0,0,0,0,0.2911,0.2929,0.2926,0.293,0.2949,0.2964,0.2967,0.2967,0.296,0.2968,0.2973,0.2969,0.3002,0.2992,0.2997,0.3008,0.3042,0.3044,0.3045,0.3056,0.3059,0.3062,0,0,0,0,0,0,0.2923,0.293,0.2927,0.2948,0.2955,0.2963,0.2974,0.2971,0.2982,0.298,0.2981,0.2983,0.3003,0.3007,0.2997,0.3031,0.3021,0.3023,0.3027,0.303,0.3033,0.3031,0.2988,0,0,0,0,0,0.2927,0.2939,0.2945,0.2963,0.2967,0.297,0.2977,0.2976,0.2984,0.2988,0.2993,0.3002,0.3015,0.3023,0.3035,0.3057,0.3059,0.3067,0.307,0.3072,0.3074,0.3086,0.309,0.3052,0.3052,0.3052,0,0,0.2938,0.2943,0.2951,0.2965,0.2971,0.2984,0.2973,0.2986,0.2996,0.299,0.3008,0.3013,0.3023,0.3043,0.3053,0.3048,0.3085,0.3074,0.3076,0.3077,0.3088,0.3092,0.3095,0.3053,0.3053,0.3053,0,0,0.2963,0.2968,0.2983,0.2989,0.2998,0.3,0.3003,0.3011,0.3014,0.3032,0.3028,0.3039,0.306,0.3067,0.3074,0.3101,0.3097,0.3104,0.3118,0.313,0.3133,0.3135,0.3145,0.3148,0.3107,0.3107,0.3107,0,0.2975,0.2993,0.2992,0.3006,0.3012,0.3007,0.3022,0.3028,0.3041,0.3046,0.304,0.3066,0.3072,0.3094,0.3101,0.3106,0.311,0.3103,0.3132,0.3135,0.3137,0.3146,0.315,0.3108,0.3107,0.3107,0.3107,0,0.3007,0.302,0.3031,0.3042,0.305,0.3065,0.3066,0.3074,0.3073,0.3075,0.3093,0.3101,0.3113,0.3119,0.3118,0.3141,0.3137,0.3132,0.3122,0.3142,0.315,0.3154,0.3109,0.3108,0.3108,0.3108,0,0,0.3041,0.305,0.3055,0.3059,0.3068,0.3078,0.3092,0.3104,0.3111,0.312,0.3132,0.3149,0.3144,0.3151,0.3151,0.3161,0.3182,0.3155,0.3155,0.3159,0.3207,0.3211,0.3215,0.3179,0.318,0.3181,0.3206,0,0.3067,0.3091,0.309,0.3113,0.3125,0.3119,0.3132,0.3139,0.3141,0.3152,0.3155,0.3167,0.3159,0.3163,0.3173,0.3177,0.3191,0.3175,0.3191,0.3191,0.3189,0.3219,0.3224,0.3247,0.3209,0.321,0.321,0,0.3101,0.3109,0.3133,0.3139,0.3144,0.3155,0.3165,0.3175,0.3183,0.3184,0.3192,0.319,0.3204,0.3193,0.3214,0.3203,0.3209,0.3212,0.3213,0.3214,0.3202,0.3221,0.3255,0.3258,0.3215,0.3215,0.3215,0,0.3123,0.314,0.3156,0.3161,0.3169,0.3177,0.318,0.3187,0.3194,0.3203,0.3208,0.3219,0.3225,0.3233,0.3234,0.3226,0.3255,0.3244,0.3256,0.3256,0.3263,0.3262,0.3297,0.3267,0.3267,0.3267,0.3267,0,0.3152,0.3166,0.3166,0.3176,0.3193,0.3192,0.3208,0.3211,0.3217,0.3228,0.3224,0.3234,0.3235,0.3246,0.3247,0.3263,0.3266,0.3267,0.3268,0.3268,0.3268,0.3272,0.327,0.3268,0.3267,0.3267,0.3267,0,0.3179,0.318,0.3197,0.3203,0.3204,0.3216,0.3221,0.3231,0.3233,0.3246,0.325,0.3253,0.3265,0.3266,0.3281,0.3282,0.3301,0.33,0.3298,0.3298,0.331,0.3309,0.3349,0.3354,0.3321,0.3321,0.3321,0,0.3198,0.3209,0.3215,0.3222,0.3225,0.3236,0.3243,0.3242,0.3249,0.3258,0.3267,0.3278,0.3288,0.3307,0.3311,0.3322,0.3321,0.3334,0.3322,0.3322,0.3321,0.332,0.3321,0.3336,0.3337,0.3337,0.3337,0,0.323,0.323,0.3239,0.3248,0.3256,0.3264,0.3271,0.3276,0.3276,0.3284,0.3296,0.3303,0.3318,0.3329,0.334,0.3344,0.3341,0.3341,0.3344,0.3345,0.3343,0.3344,0.3304,0.334,0.334,0.334,0.3339,0.3339,0.3254,0.3263,0.3269,0.3279,0.3284,0.3291,0.33,0.3302,0.3312,0.3323,0.3322,0.3335,0.3342,0.3355,0.336,0.3371,0.3366,0.3371,0.3372,0.3374,0.3375,0.3341,0.3373,0.3372,0.3372,0.3372,0.3372,0,0.3286,0.3289,0.3299,0.3308,0.3316,0.3311,0.3319,0.3326,0.3337,0.3343,0.3352,0.3366,0.3376,0.3381,0.3391,0.3399,0.3397,0.3402,0.3401,0.3402,0.3378,0.3374,0.3402,0.3402,0.3402,0.3402,0.3402,0.3402,0.3304,0.3319,0.3319,0.3337,0.334,0.3352,0.3357,0.3363,0.3367,0.3382,0.3391,0.3393,0.3399,0.3409,0.3419,0.342,0.3424,0.3429,0.3429,0.3407,0.3404,0.3401,0.3397,0.343,0.343,0.3452,0.3452,0.3452]},{"header":{"parameterUnit":"m.s-1","parameterCategory":1,"la1":30.2991,"la2":30.254,"lo1":-89.0895,"lo2":-89.0444,"dy":0.0017,"dx":0.0017,"nx":28,"ny":28,"refTime":"2023-11-04T21:00:00:Z","depth":0,"parameterNumber":3,"parameterNumberName":"V-component_of_WINDS"},"data":[0,0,0,0,0,0,0,0,0,0,0,0,0,0,0,0,0,0,0,0,0,0,0,0,0,0,0,0,0,0,0,0,0,0,0,0,0,0,0,0,0,0,0,0,0,0,0,0,0,0,0,0,0,0,0,0,0,0,-0.435,-0.435,0,-0.436,-0.436,-0.436,-0.4387,-0.4388,-0.4388,-0.4389,-0.44,-0.44,-0.44,0,0,0,0,0,0,0,0,0,0,0,0,0,-0.4358,-0.4358,-0.435,-0.435,-0.435,-0.436,-0.436,-0.436,-0.4387,-0.4388,-0.4389,-0.4389,-0.44,-0.44,-0.44,0,0,0,0,0,0,0,0,0,0,0,0,0,-0.436,-0.4358,-0.435,-0.4365,-0.4366,-0.436,-0.436,-0.436,-0.4387,-0.4388,-0.4389,-0.439,-0.44,-0.44,-0.44,-0.438,0,0,-0.4399,-0.4398,0,0,0,0,0,0,0,0,-0.436,-0.436,-0.4363,-0.4364,-0.4366,-0.4373,-0.4367,-0.4367,-0.4387,-0.4379,-0.4389,-0.439,-0.4391,-0.4391,-0.4391,-0.438,-0.4381,-0.4399,-0.4398,-0.4398,-0.4398,0,0,0,0,0,0,0,-0.436,-0.4359,-0.4354,-0.4363,-0.4365,-0.4372,-0.4373,-0.4367,-0.438,-0.438,-0.4382,-0.4383,-0.4392,-0.4391,-0.4391,-0.4381,-0.4399,-0.4398,-0.4398,-0.4398,-0.4357,-0.4356,0,0,0,0,0,0,-0.4357,-0.4359,-0.4354,-0.4354,-0.4365,-0.4371,-0.4373,-0.437,-0.438,-0.4382,-0.4382,-0.4384,-0.4392,-0.4392,-0.4392,-0.4372,-0.4398,-0.4398,-0.4398,-0.4358,-0.4357,-0.4356,0,0,0,0,0,0,-0.4357,-0.4356,-0.4353,-0.4357,-0.4357,-0.437,-0.4367,-0.437,-0.4369,-0.4381,-0.4384,-0.4379,-0.4392,-0.4393,-0.4383,-0.4372,-0.4398,-0.4397,-0.4359,-0.4358,-0.4357,-0.4329,0,0,0,0,0,0,-0.4357,-0.4356,-0.4348,-0.4357,-0.4357,-0.4343,-0.4366,-0.4369,-0.4368,-0.4371,-0.438,-0.4382,-0.4393,-0.4384,-0.4383,-0.4372,-0.4397,-0.436,-0.4359,-0.4357,-0.4331,-0.4327,-0.4323,0,0,0,0,0,-0.4357,-0.434,-0.4347,-0.4347,-0.4347,-0.4343,-0.4343,-0.4356,-0.4367,-0.436,-0.4368,-0.4382,-0.4373,-0.4382,-0.4382,-0.4371,-0.4361,-0.4359,-0.4357,-0.4333,-0.4328,-0.4324,0,0,0,0,0,0,-0.4329,-0.4341,-0.435,-0.4334,-0.4337,-0.4347,-0.4338,-0.435,-0.435,-0.4352,-0.4369,-0.437,-0.4359,-0.4364,-0.4374,-0.4353,-0.4369,-0.4367,-0.4351,-0.4346,-0.4343,-0.4343,-0.4397,0,0,0,0,0,-0.4321,-0.4316,-0.4327,-0.4312,-0.4313,-0.4325,-0.4324,-0.4333,-0.4337,-0.4339,-0.4346,-0.435,-0.4349,-0.4348,-0.4347,-0.4331,-0.4335,-0.4324,-0.432,-0.4317,-0.4315,-0.431,-0.4306,-0.435,-0.435,-0.435,0,0,-0.4305,-0.431,-0.4306,-0.4306,-0.431,-0.4306,-0.4326,-0.432,-0.4317,-0.4338,-0.4331,-0.4336,-0.4342,-0.433,-0.4325,-0.4333,-0.4304,-0.4314,-0.4312,-0.4312,-0.4308,-0.4303,-0.43,-0.4349,-0.4349,-0.4349,0,0,-0.4273,-0.4275,-0.4265,-0.4268,-0.4273,-0.4281,-0.4279,-0.4287,-0.4292,-0.4284,-0.4301,-0.4298,-0.4294,-0.4298,-0.43,-0.4271,-0.4284,-0.427,-0.4251,-0.4246,-0.4242,-0.4239,-0.4231,-0.4228,-0.4268,-0.4268,-0.4268,0,-0.4252,-0.4245,-0.4258,-0.4251,-0.4252,-0.427,-0.426,-0.4263,-0.4268,-0.4268,-0.4277,-0.4275,-0.428,-0.427,-0.4263,-0.4263,-0.4262,-0.427,-0.4242,-0.4239,-0.4236,-0.4229,-0.4225,-0.4267,-0.4267,-0.4267,-0.4267,0,-0.422,-0.4215,-0.4206,-0.421,-0.421,-0.4201,-0.4214,-0.4212,-0.4222,-0.423,-0.4223,-0.4229,-0.4231,-0.4229,-0.4239,-0.4222,-0.4227,-0.4238,-0.4255,-0.423,-0.4224,-0.4221,-0.4264,-0.4265,-0.4265,-0.4266,0,0,-0.4171,-0.4183,-0.418,-0.4183,-0.419,-0.4188,-0.4181,-0.4182,-0.4181,-0.4184,-0.418,-0.4177,-0.4189,-0.419,-0.42,-0.4195,-0.4175,-0.4208,-0.4208,-0.4203,-0.416,-0.4152,-0.4149,-0.4183,-0.4182,-0.4182,-0.416,0,-0.4143,-0.4132,-0.4144,-0.4131,-0.4128,-0.4145,-0.414,-0.4145,-0.4152,-0.4151,-0.416,-0.4158,-0.4172,-0.4173,-0.4169,-0.4178,-0.4167,-0.418,-0.4181,-0.4181,-0.4181,-0.4145,-0.4137,-0.4116,-0.4157,-0.4157,-0.4156,0,-0.4108,-0.411,-0.4096,-0.4107,-0.4106,-0.41,-0.4104,-0.4102,-0.4109,-0.4115,-0.4117,-0.4129,-0.4125,-0.414,-0.4135,-0.4144,-0.4145,-0.415,-0.415,-0.4152,-0.4168,-0.4148,-0.4109,-0.4106,-0.4152,-0.4152,-0.4152,0,-0.4077,-0.4076,-0.4068,-0.407,-0.4081,-0.4077,-0.4082,-0.4089,-0.4089,-0.4093,-0.4094,-0.4096,-0.4098,-0.41,-0.4113,-0.4123,-0.4108,-0.4124,-0.4114,-0.4114,-0.4112,-0.4112,-0.4074,-0.4109,-0.4109,-0.4109,-0.4109,0,-0.4045,-0.4037,-0.4055,-0.405,-0.4042,-0.4056,-0.4048,-0.4054,-0.4061,-0.4059,-0.4074,-0.4072,-0.4088,-0.4089,-0.4099,-0.4095,-0.4095,-0.4101,-0.4104,-0.4101,-0.41,-0.4103,-0.4106,-0.4109,-0.4109,-0.4109,-0.4109,0,-0.401,-0.4021,-0.4014,-0.4025,-0.4028,-0.4022,-0.4032,-0.4029,-0.4037,-0.4035,-0.4035,-0.4048,-0.405,-0.4063,-0.4066,-0.4073,-0.4066,-0.4071,-0.4064,-0.4067,-0.4058,-0.4059,-0.4022,-0.4019,-0.4054,-0.4053,-0.4053,0,-0.399,-0.3984,-0.3995,-0.3995,-0.3998,-0.3997,-0.3999,-0.4013,-0.4013,-0.4021,-0.4017,-0.402,-0.4023,-0.4024,-0.4035,-0.4039,-0.4045,-0.4032,-0.4046,-0.4043,-0.4047,-0.4048,-0.4049,-0.4029,-0.4029,-0.4028,-0.4028,0,-0.3955,-0.3961,-0.3961,-0.3964,-0.3965,-0.3968,-0.3972,-0.3971,-0.3987,-0.3987,-0.3989,-0.3991,-0.3995,-0.3998,-0.4004,-0.401,-0.4022,-0.4023,-0.4022,-0.4019,-0.4016,-0.402,-0.4058,-0.4025,-0.4025,-0.4025,-0.4025,-0.4026,-0.3928,-0.3924,-0.3932,-0.3933,-0.3937,-0.3941,-0.3939,-0.3948,-0.3949,-0.3953,-0.3962,-0.3962,-0.397,-0.3979,-0.3984,-0.3986,-0.3993,-0.399,-0.399,-0.3989,-0.3988,-0.4015,-0.3986,-0.3987,-0.3987,-0.3987,-0.3987,0,-0.3895,-0.3901,-0.3901,-0.3907,-0.3908,-0.3919,-0.3924,-0.3925,-0.3925,-0.3931,-0.3934,-0.3936,-0.3939,-0.395,-0.3955,-0.3954,-0.396,-0.3955,-0.3956,-0.3958,-0.398,-0.3982,-0.395,-0.395,-0.395,-0.395,-0.3951,-0.3951,-0.3879,-0.3874,-0.3881,-0.3879,-0.3885,-0.3886,-0.3888,-0.3892,-0.3897,-0.3899,-0.3902,-0.3909,-0.3918,-0.3923,-0.3927,-0.3931,-0.3933,-0.3926,-0.3931,-0.3953,-0.3956,-0.396,-0.3961,-0.3926,-0.3926,-0.3909,-0.3909,-0.3909]}]]